Mountain Home, ID

1:37 AM MDT on March 29, 2017 (GMT -0600)
Mountain Home Air Force Base

Weather History for KMUO - November, 2013

Change the Weather History Date:

Monday, November 4, 2013

  Actual Average Record
Temperature  
Mean Temperature 32 °F 43 °F  
Max Temperature 43 °F 55 °F 73 °F (1980)
Min Temperature 20 °F 31 °F -4 °F (1935)
Degree Days  
Heating Degree Days 33 21  
Month to date heating degree days 93 82  
Cooling Degree Days 0 0  
Month to date cooling degree days 0 0  
Moisture  
Dew Point 25 °F    
Average Humidity 78    
Maximum Humidity 100    
Minimum Humidity 46    
Precipitation  
Precipitation T in 0.03 in 0.82 in (1938)
Month to date precipitation T 0.14  
Sea Level Pressure  
Sea Level Pressure 30.11 in    
Wind  
Wind Speed 4 mph (NW)    
Max Wind Speed 14 mph    
Max Gust Speed -    
Visibility 9 miles    
Events Rain , Snow    
T = Trace of Precipitation, MM = Missing Value Source: NWS Daily Summary

Daily Weather History Graph

Daily Weather History Graph

Search for Another Location

Airport or City:

Trip Planner

Search our weather history database for the weather conditions in past years. The results will help you decide how hot, cold, wet, or windy it might be!

Date:

Astronomy

Nov. 04, 2013 Rise Set
Actual Time 7:22 AM MST 5:31 PM MST
Civil Twilight 6:52 AM MST 6:00 PM MST
Nautical Twilight 6:18 AM MST 6:34 PM MST
Astronomical Twilight 5:45 AM MST 7:07 PM MST
Moon 8:39 AM MST (11/4) 6:37 PM MST (11/4)
Length of Visible Light 11h 08m
Length of Day
10h 08m
New Moon, 2% of the Moon is Illuminated
Nov 4
New Moon
Nov 9
First Quarter
Nov 17
Full
Nov 25
Last Quarter
Dec 2
New

Hourly Weather History & Observations

Time (MST) Temp. Windchill Dew Point Humidity Pressure Visibility Wind Dir Wind Speed Gust Speed Precip Events Conditions
12:08 AM 26.6 °F - 21.2 °F 80% 30.03 in 10.0 mi ENE 2.3 mph - N/A   Mostly Cloudy
12:38 AM 24.8 °F 17.9 °F 21.2 °F 86% 30.03 in 10.0 mi ENE 5.8 mph - N/A   Scattered Clouds
12:58 AM 24.6 °F 18.8 °F 20.8 °F 86% 30.09 in 10.0 mi ENE 4.6 mph - N/A   Clear
1:58 AM 22.1 °F 17.4 °F 18.9 °F 87% 30.09 in 10.0 mi East 3.5 mph - N/A   Clear
2:58 AM 22.6 °F - 18.1 °F 83% 30.09 in 10.0 mi Calm Calm - N/A   Mostly Cloudy
3:58 AM 23.9 °F - 19.0 °F 82% 30.09 in 10.0 mi Calm Calm - N/A   Partly Cloudy
4:58 AM 21.0 °F 14.6 °F 16.2 °F 81% 30.08 in 10.0 mi SE 4.6 mph - N/A   Clear
5:38 AM 21.2 °F 16.4 °F 17.6 °F 86% 30.03 in 10.0 mi NE 3.5 mph - N/A   Mostly Cloudy
5:58 AM 23.2 °F - 20.5 °F 89% 30.11 in 10.0 mi NE 2.3 mph - N/A   Overcast
6:03 AM 23.0 °F - 21.2 °F 93% 30.04 in 10.0 mi NE 2.3 mph - N/A   Overcast
6:48 AM 26.6 °F 22.6 °F 23.0 °F 86% 30.04 in 10.0 mi ESE 3.5 mph - N/A   Overcast
6:58 AM 25.5 °F 21.3 °F 23.4 °F 92% 30.11 in 10.0 mi ESE 3.5 mph - N/A   Overcast
7:13 AM 26.6 °F 21.2 °F 23.0 °F 86% 30.04 in 10.0 mi East 4.6 mph - N/A   Overcast
7:23 AM 26.6 °F 21.2 °F 24.8 °F 93% 30.04 in 10.0 mi East 4.6 mph - N/A   Overcast
7:58 AM 26.1 °F 21.9 °F 23.7 °F 91% 30.13 in 10.0 mi East 3.5 mph - N/A   Mostly Cloudy
8:28 AM 26.6 °F - 24.8 °F 93% 30.08 in 10.0 mi ENE 1.2 mph - N/A   Mostly Cloudy
8:43 AM 28.4 °F - 24.8 °F 86% 30.08 in 10.0 mi NE 1.2 mph - N/A   Mostly Cloudy
8:58 AM 29.1 °F - 26.6 °F 90% 30.17 in 10.0 mi Variable 2.3 mph - N/A   Mostly Cloudy
9:16 AM 30.2 °F - 26.6 °F 86% 30.09 in 10.0 mi Variable 2.3 mph - N/A Snow Snow Grains
9:28 AM 32.0 °F - 26.6 °F 80% 30.09 in 10.0 mi West 2.3 mph - N/A Snow Light Snow
9:40 AM 32.0 °F 27.5 °F 26.6 °F 80% 30.10 in 4.0 mi WNW 4.6 mph - N/A Snow Snow Grains
9:45 AM 32.0 °F 28.7 °F 26.6 °F 80% 30.10 in 3.0 mi West 3.5 mph - N/A Snow Light Snow
9:49 AM 32.0 °F 28.7 °F 28.4 °F 87% 30.10 in 1.0 mi West 3.5 mph - N/A Snow Light Snow
9:56 AM 32.0 °F - 28.4 °F 87% 30.10 in 1.5 mi WNW 2.3 mph - N/A Snow Light Snow
9:58 AM 30.7 °F - 28.4 °F 91% 30.18 in 1.5 mi WNW 2.3 mph - 0.00 in Snow Light Snow
10:03 AM 32.0 °F 28.7 °F 28.4 °F 87% 30.10 in 3.0 mi WNW 3.5 mph - N/A Snow Light Snow
10:13 AM 32.0 °F - 28.4 °F 87% 30.10 in 7.0 mi Variable 2.3 mph - N/A Snow Light Snow
10:29 AM 32.0 °F - 30.2 °F 93% 30.10 in 10.0 mi NE 2.3 mph - N/A   Scattered Clouds
10:58 AM 35.2 °F - 32.9 °F 91% 30.17 in 10.0 mi North 2.3 mph - 0.00 in   Scattered Clouds
11:58 AM 40.3 °F 34.9 °F 28.6 °F 63% 30.14 in 10.0 mi NW 8.1 mph - 0.00 in Rain Light Rain
12:08 PM 39.2 °F 35.9 °F 30.2 °F 70% 30.08 in 7.0 mi West 4.6 mph - N/A Rain Light Rain
12:13 PM 39.2 °F - 30.2 °F 70% 30.08 in 7.0 mi West 2.3 mph - N/A Rain Light Rain
12:28 PM 39.2 °F 37.0 °F 32.0 °F 75% 30.08 in 10.0 mi NW 3.5 mph - N/A   Mostly Cloudy
12:58 PM 39.7 °F 33.7 °F 29.3 °F 66% 30.14 in 10.0 mi NW 9.2 mph - 0.00 in   Mostly Cloudy
1:28 PM 41.0 °F 35.2 °F 23.0 °F 49% 30.06 in 10.0 mi WNW 9.2 mph - N/A   Mostly Cloudy
1:58 PM 40.8 °F 35.6 °F 25.5 °F 55% 30.13 in 10.0 mi WNW 8.1 mph - 0.00 in   Scattered Clouds
2:34 PM 42.8 °F - 24.8 °F 49% 30.06 in 10.0 mi NNW 2.3 mph - N/A   Mostly Cloudy
2:44 PM 42.8 °F 37.0 °F 24.8 °F 49% 30.06 in 10.0 mi WNW 10.4 mph - N/A   Mostly Cloudy
2:54 PM 42.8 °F 36.2 °F 23.0 °F 46% 30.05 in 10.0 mi WNW 12.7 mph - N/A   Mostly Cloudy
2:58 PM 42.6 °F 35.9 °F 22.8 °F 46% 30.12 in 10.0 mi WNW 12.7 mph - 0.00 in   Mostly Cloudy
3:28 PM 42.8 °F 36.6 °F 23.0 °F 46% 30.06 in 10.0 mi WNW 11.5 mph - N/A   Mostly Cloudy
3:43 PM 41.0 °F 34.3 °F 26.6 °F 57% 30.06 in 10.0 mi West 11.5 mph - N/A   Partly Cloudy
3:58 PM 41.4 °F 34.0 °F 28.2 °F 60% 30.13 in 10.0 mi West 13.8 mph - N/A   Scattered Clouds
4:58 PM 41.0 °F 36.4 °F 26.6 °F 57% 30.14 in 10.0 mi WNW 6.9 mph - N/A   Scattered Clouds
5:58 PM 34.7 °F 28.8 °F 27.1 °F 74% 30.16 in 10.0 mi WNW 6.9 mph - N/A   Partly Cloudy
6:58 PM 32.4 °F 24.6 °F 27.0 °F 80% 30.18 in 10.0 mi West 9.2 mph - N/A   Clear
7:58 PM 28.8 °F 20.2 °F 26.8 °F 92% 30.19 in 10.0 mi West 9.2 mph - N/A   Clear
8:28 PM 28.4 °F 20.4 °F 28.4 °F 100% 30.11 in 10.0 mi West 8.1 mph - N/A   Mostly Cloudy
8:58 PM 31.3 °F 25.6 °F 30.0 °F 95% 30.21 in 10.0 mi North 5.8 mph - N/A   Overcast
9:03 PM 32.0 °F 26.4 °F 30.2 °F 93% 30.13 in 10.0 mi NNW 5.8 mph - N/A   Overcast
9:23 PM 32.0 °F 28.7 °F 28.4 °F 87% 30.14 in 10.0 mi NNW 3.5 mph - N/A   Scattered Clouds
9:58 PM 29.8 °F 26.3 °F 23.5 °F 77% 30.22 in 10.0 mi NNW 3.5 mph - N/A   Clear
10:58 PM 27.3 °F - 20.1 °F 74% 30.23 in 10.0 mi North 2.3 mph - N/A   Clear
11:58 PM 25.0 °F - 20.1 °F 82% 30.23 in 10.0 mi Calm Calm - N/A   Clear